Location: Newark
(36.8292°N, 10.0894°E)
Time: 15:41:03
(UTC+00:00)

Hubble Space Telescope - Visible Passes

Search period start: 10 December 2019 00:00
Search period end: 20 December 2019 00:00
Orbit: 536 x 540 km, 28.5° (Epoch: 10 December)

Date Brightness Start Highest point End Pass type
(mag) Time Alt. Az. Time Alt. Az. Time Alt. Az.
11 Dec 3.9 05:50:08 10° S 05:51:05 11° SSE 05:52:01 10° SE visible
12 Dec 3.6 05:38:26 10° S 05:40:21 13° SSE 05:42:15 10° SE visible
13 Dec 3.5 05:27:12 10° SSW 05:29:37 15° SSE 05:32:04 10° SE visible
14 Dec 3.3 05:16:09 10° SSW 05:18:55 17° SSE 05:21:42 10° ESE visible
15 Dec 3.1 05:05:13 10° SW 05:08:13 19° SSE 05:11:14 10° ESE visible
16 Dec 2.9 04:54:29 11° SW 04:57:32 21° S 05:00:43 10° ESE visible
17 Dec 2.7 04:44:46 16° SSW 04:46:50 23° S 04:50:09 10° ESE visible
18 Dec 2.5 04:34:57 21° SSW 04:36:10 24° S 04:39:32 10° ESE visible
19 Dec 2.4 04:25:04 25° S 04:25:29 25° S 04:28:55 10° ESE visible
